M/T Goviken — 9HA2718 — position and weather

sailwx.info

Track history (hours):
 
Tides and Currents Weather Stations Pressure Air Temp Water Temp Dewpoint Dewpoint Depression Visibility Wind Speed Wind Dir Waves Ship Positions

M/T Goviken

Last reported at 2014-Oct-25 22:33 UTC. Time now 2014-Oct-25 22:55 UTC.
Position N 51°21' E 003°46'.

Length 88 m; draft 6.5 m.

Type: Ship (hazmat cat C). MMSI: 215389000.

Date/timePositionNaut miles runAvg speedWind from/ knotsBaromVisibWave heightAir tempDewpointWater temp
2014-Oct-25 22:33N 51°21' E 003°46'0 0.0
2014-Oct-25 21:33N 51°21' E 003°46'0 0.0
2014-Oct-25 20:33N 51°21' E 003°46'0 0.0
2014-Oct-25 19:27N 51°21' E 003°46'0 0.0
2014-Oct-25 18:33N 51°21' E 003°46'0 0.0
2014-Oct-25 17:33N 51°21' E 003°46'0 0.0
2014-Oct-25 16:33N 51°21' E 003°46'0 0.0
2014-Oct-25 15:33N 51°21' E 003°46'0 0.0
2014-Oct-25 14:33N 51°21' E 003°46'0 0.0
2014-Oct-25 13:27N 51°21' E 003°46'0 0.0
2014-Oct-25 12:33N 51°21' E 003°46'0 0.0
2014-Oct-25 11:33N 51°21' E 003°46'0 0.0
2014-Oct-25 10:33N 51°21' E 003°46'0 0.0
2014-Oct-25 09:33N 51°21' E 003°46'0 0.0
2014-Oct-25 08:33N 51°21' E 003°46'0 0.0
2014-Oct-25 07:27N 51°21' E 003°46'0 0.0
2014-Oct-25 06:33N 51°21' E 003°46'0 0.0
2014-Oct-25 05:30N 51°21' E 003°46'0 0.0
2014-Oct-25 04:33N 51°21' E 003°46'0 0.0
2014-Oct-25 03:33N 51°21' E 003°46'0 0.0
2014-Oct-25 02:33N 51°21' E 003°46'0 0.0
2014-Oct-25 01:30N 51°21' E 003°46'0 0.0
2014-Oct-25 00:30N 51°21' E 003°46'1 1.1
2014-Oct-24 23:33N 51°22' E 003°45'7 7.5
2014-Oct-24 22:33N 51°25' E 003°35'1211.7
2014-Oct-24 21:33N 51°24' E 003°16'1010.0
2014-Oct-24 20:31N 51°23' E 002°59'10 8.9
2014-Oct-24 19:21N 51°22' E 002°43'3 3.9
2014-Oct-24 18:33N 51°22' E 002°38'4 3.9
2014-Oct-24 17:32N 51°20' E 002°32'0 0.0
2014-Oct-24 16:31N 51°20' E 002°32'0 0.0
2014-Oct-24 15:31N 51°20' E 002°32'0 0.0
2014-Oct-24 14:28N 51°20' E 002°32'0 0.0
2014-Oct-24 13:31N 51°20' E 002°32'0 0.0
2014-Oct-24 12:28N 51°20' E 002°32'0 0.0
2014-Oct-24 11:31N 51°20' E 002°32'0 0.0
2014-Oct-24 10:32N 51°20' E 002°32'0 0.2
2014-Oct-24 09:28N 51°20' E 002°32'0 0.0
2014-Oct-24 08:31N 51°20' E 002°32'0 0.0
2014-Oct-24 07:25N 51°20' E 002°32'0 0.2
2014-Oct-24 06:29N 51°20' E 002°32'0 0.1
2014-Oct-24 05:31N 51°20' E 002°32'1 1.3
2014-Oct-24 04:33N 51°22' E 002°32'7 7.2
2014-Oct-24 03:33N 51°19' E 002°21'6 6.2
2014-Oct-24 02:33N 51°16' E 002°12'7 7.0
2014-Oct-24 01:34N 51°12' E 002°03'7 7.2
2014-Oct-24 00:34N 51°10' E 001°52'8 8.2
2014-Oct-23 23:34N 51°05' E 001°42'9 9.4
2014-Oct-23 22:34N 50°58' E 001°31'9 8.9
2014-Oct-23 21:30N 50°50' E 001°25'9 9.0
2014-Oct-23 20:32N 50°42' E 001°19'41 7.6
2014-Oct-23 15:07N 50°24' E 000°21'101 8.7
2014-Oct-23 03:29N 49°56' W 002°11'11 8.4
2014-Oct-23 02:13N 49°53' W 002°27'20 7.0
2014-Oct-22 23:21N 49°47' W 002°56'6 7.9
2014-Oct-22 22:33N 49°43' W 003°05'9 8.3
2014-Oct-22 21:32N 49°39' W 003°16'8 8.0
2014-Oct-22 20:33N 49°36' W 003°27'  
2014-Oct-19 11:24N 38°40' W 009°56'8 9.7
2014-Oct-19 10:32N 38°34' W 009°50'10 9.8
2014-Oct-19 09:33N 38°28' W 009°40'9 9.3
2014-Oct-19 08:33N 38°22' W 009°31'9 9.2
2014-Oct-19 07:33N 38°16' W 009°22'9 9.2
2014-Oct-19 06:33N 38°10' W 009°13'9 8.8
2014-Oct-19 05:33N 38°05' W 009°04'10 9.6
2014-Oct-19 04:33N 37°58' W 008°56'2 2.0
2014-Oct-19 03:33N 37°57' W 008°53'0 0.0
2014-Oct-19 02:33N 37°57' W 008°53'0 0.0
2014-Oct-19 01:33N 37°57' W 008°53'0 0.0
2014-Oct-19 00:33N 37°57' W 008°53'0 0.0
2014-Oct-18 23:33N 37°57' W 008°53'0 0.0
2014-Oct-18 22:33N 37°57' W 008°53'0 0.0
2014-Oct-18 21:33N 37°57' W 008°53'0 0.0
2014-Oct-18 20:33N 37°57' W 008°53'0 0.0
2014-Oct-18 19:30N 37°57' W 008°53'0 0.0
2014-Oct-18 18:33N 37°57' W 008°53'0 0.0
2014-Oct-18 17:33N 37°57' W 008°53'0 0.0
2014-Oct-18 16:33N 37°57' W 008°53'0 0.0
2014-Oct-18 15:33N 37°57' W 008°53'0 0.0
2014-Oct-18 14:30N 37°57' W 008°53'0 0.0
2014-Oct-18 13:33N 37°57' W 008°53'0 0.0
2014-Oct-18 12:33N 37°57' W 008°53'0 0.0
2014-Oct-18 11:33N 37°57' W 008°53'0 0.0
2014-Oct-18 10:33N 37°57' W 008°53'0 0.0
2014-Oct-18 09:33N 37°57' W 008°53'0 0.0
2014-Oct-18 08:33N 37°57' W 008°53'0 0.0
2014-Oct-18 07:33N 37°57' W 008°53'0 0.0
2014-Oct-18 06:33N 37°57' W 008°53'0 0.0
2014-Oct-18 05:33N 37°57' W 008°53'0 0.0
2014-Oct-18 04:33N 37°57' W 008°53'0 0.0
2014-Oct-18 03:33N 37°57' W 008°53'0 0.0
2014-Oct-18 02:33N 37°57' W 008°53'0 0.0
2014-Oct-18 01:33N 37°57' W 008°53'0 0.0
2014-Oct-18 00:33N 37°57' W 008°53'0 0.0
2014-Oct-17 23:33N 37°57' W 008°53'0 0.0
2014-Oct-17 22:33N 37°57' W 008°53'0 0.0
2014-Oct-17 21:27N 37°57' W 008°53'1 1.5
2014-Oct-17 20:33N 37°56' W 008°53'1 1.3
2014-Oct-17 19:31N 37°55' W 008°52'0 0.1
2014-Oct-17 18:31N 37°55' W 008°52'0 0.0
2014-Oct-17 17:31N 37°55' W 008°52'0 0.0
2014-Oct-17 16:31N 37°55' W 008°52'0 0.0
2014-Oct-17 15:31N 37°55' W 008°52'0 0.0
2014-Oct-17 14:28N 37°55' W 008°52'0 0.0
2014-Oct-17 13:31N 37°55' W 008°52'0 0.0
2014-Oct-17 12:31N 37°55' W 008°52'0 0.0
2014-Oct-17 11:31N 37°55' W 008°52'0 0.0
2014-Oct-17 10:31N 37°55' W 008°52'0 0.0
2014-Oct-17 09:31N 37°55' W 008°52'0 0.0
2014-Oct-17 08:31N 37°55' W 008°52'0 0.0
2014-Oct-17 07:31N 37°55' W 008°52'0 0.0
2014-Oct-17 06:31N 37°55' W 008°52'0 0.0
2014-Oct-17 05:31N 37°55' W 008°52'0 0.0
2014-Oct-17 04:31N 37°55' W 008°52'0 0.0
2014-Oct-17 03:31N 37°55' W 008°52'0 0.0
2014-Oct-17 02:31N 37°55' W 008°52'0 0.0
2014-Oct-17 01:31N 37°55' W 008°52'0 0.0
2014-Oct-17 00:31N 37°55' W 008°52'0 0.0
2014-Oct-16 23:31N 37°55' W 008°52'0 0.0
2014-Oct-16 22:31N 37°55' W 008°52'0 0.0
2014-Oct-16 21:31N 37°55' W 008°52'0 0.0
2014-Oct-16 20:31N 37°55' W 008°52'0 0.0
2014-Oct-16 19:31N 37°55' W 008°52'0 0.0
2014-Oct-16 18:31N 37°55' W 008°52'0 0.0
2014-Oct-16 17:31N 37°55' W 008°52'0 0.0
2014-Oct-16 16:31N 37°55' W 008°52'0 0.0
2014-Oct-16 15:31N 37°55' W 008°52'0 0.0
2014-Oct-16 14:31N 37°55' W 008°52'0 0.0
2014-Oct-16 13:31N 37°55' W 008°52'0 0.0
2014-Oct-16 12:31N 37°55' W 008°52'0 0.0
2014-Oct-16 11:31N 37°55' W 008°52'0 0.0
2014-Oct-16 10:31N 37°55' W 008°52'0 0.0
2014-Oct-16 09:28N 37°55' W 008°52'0 0.0
2014-Oct-16 08:31N 37°55' W 008°52'0 0.0
2014-Oct-16 07:31N 37°55' W 008°52'0 0.0
2014-Oct-16 06:31N 37°55' W 008°52'0 0.0
2014-Oct-16 05:28N 37°55' W 008°52'0 0.0
2014-Oct-16 04:31N 37°55' W 008°52'0 0.0
2014-Oct-16 03:31N 37°55' W 008°52'0 0.0
2014-Oct-16 02:31N 37°55' W 008°52'0 0.0
2014-Oct-16 01:31N 37°55' W 008°52'0 0.0
2014-Oct-16 00:31N 37°55' W 008°52'0 0.0
2014-Oct-15 23:31N 37°55' W 008°52'  
Track history (hours):
 
Tides and Currents Weather Stations Pressure Air Temp Water Temp Dewpoint Dewpoint Depression Visibility Wind Speed Wind Dir Waves Ship Positions

M/T Goviken

Last reported at 2014-Oct-25 22:33 UTC. Time now 2014-Oct-25 22:55 UTC.
Position N 51°21' E 003°46'.

Length 88 m; draft 6.5 m.

Type: Ship (hazmat cat C). MMSI: 215389000.

Date/timePositionNaut miles runAvg speedWind from/ knotsBaromVisibWave heightAir tempDewpointWater temp
2014-Oct-25 22:33N 51°21' E 003°46'0 0.0
2014-Oct-25 21:33N 51°21' E 003°46'0 0.0
2014-Oct-25 20:33N 51°21' E 003°46'0 0.0
2014-Oct-25 19:27N 51°21' E 003°46'0 0.0
2014-Oct-25 18:33N 51°21' E 003°46'0 0.0
2014-Oct-25 17:33N 51°21' E 003°46'0 0.0
2014-Oct-25 16:33N 51°21' E 003°46'0 0.0
2014-Oct-25 15:33N 51°21' E 003°46'0 0.0
2014-Oct-25 14:33N 51°21' E 003°46'0 0.0
2014-Oct-25 13:27N 51°21' E 003°46'0 0.0
2014-Oct-25 12:33N 51°21' E 003°46'0 0.0
2014-Oct-25 11:33N 51°21' E 003°46'0 0.0
2014-Oct-25 10:33N 51°21' E 003°46'0 0.0
2014-Oct-25 09:33N 51°21' E 003°46'0 0.0
2014-Oct-25 08:33N 51°21' E 003°46'0 0.0
2014-Oct-25 07:27N 51°21' E 003°46'0 0.0
2014-Oct-25 06:33N 51°21' E 003°46'0 0.0
2014-Oct-25 05:30N 51°21' E 003°46'0 0.0
2014-Oct-25 04:33N 51°21' E 003°46'0 0.0
2014-Oct-25 03:33N 51°21' E 003°46'0 0.0
2014-Oct-25 02:33N 51°21' E 003°46'0 0.0
2014-Oct-25 01:30N 51°21' E 003°46'0 0.0
2014-Oct-25 00:30N 51°21' E 003°46'1 1.1
2014-Oct-24 23:33N 51°22' E 003°45'7 7.5
2014-Oct-24 22:33N 51°25' E 003°35'1211.7
2014-Oct-24 21:33N 51°24' E 003°16'1010.0
2014-Oct-24 20:31N 51°23' E 002°59'10 8.9
2014-Oct-24 19:21N 51°22' E 002°43'3 3.9
2014-Oct-24 18:33N 51°22' E 002°38'4 3.9
2014-Oct-24 17:32N 51°20' E 002°32'0 0.0
2014-Oct-24 16:31N 51°20' E 002°32'0 0.0
2014-Oct-24 15:31N 51°20' E 002°32'0 0.0
2014-Oct-24 14:28N 51°20' E 002°32'0 0.0
2014-Oct-24 13:31N 51°20' E 002°32'0 0.0
2014-Oct-24 12:28N 51°20' E 002°32'0 0.0
2014-Oct-24 11:31N 51°20' E 002°32'0 0.0
2014-Oct-24 10:32N 51°20' E 002°32'0 0.2
2014-Oct-24 09:28N 51°20' E 002°32'0 0.0
2014-Oct-24 08:31N 51°20' E 002°32'0 0.0
2014-Oct-24 07:25N 51°20' E 002°32'0 0.2
2014-Oct-24 06:29N 51°20' E 002°32'0 0.1
2014-Oct-24 05:31N 51°20' E 002°32'1 1.3
2014-Oct-24 04:33N 51°22' E 002°32'7 7.2
2014-Oct-24 03:33N 51°19' E 002°21'6 6.2
2014-Oct-24 02:33N 51°16' E 002°12'7 7.0
2014-Oct-24 01:34N 51°12' E 002°03'7 7.2
2014-Oct-24 00:34N 51°10' E 001°52'8 8.2
2014-Oct-23 23:34N 51°05' E 001°42'9 9.4
2014-Oct-23 22:34N 50°58' E 001°31'9 8.9
2014-Oct-23 21:30N 50°50' E 001°25'9 9.0
2014-Oct-23 20:32N 50°42' E 001°19'41 7.6
2014-Oct-23 15:07N 50°24' E 000°21'101 8.7
2014-Oct-23 03:29N 49°56' W 002°11'11 8.4
2014-Oct-23 02:13N 49°53' W 002°27'20 7.0
2014-Oct-22 23:21N 49°47' W 002°56'6 7.9
2014-Oct-22 22:33N 49°43' W 003°05'9 8.3
2014-Oct-22 21:32N 49°39' W 003°16'8 8.0
2014-Oct-22 20:33N 49°36' W 003°27'  
2014-Oct-19 11:24N 38°40' W 009°56'8 9.7
2014-Oct-19 10:32N 38°34' W 009°50'10 9.8
2014-Oct-19 09:33N 38°28' W 009°40'9 9.3
2014-Oct-19 08:33N 38°22' W 009°31'9 9.2
2014-Oct-19 07:33N 38°16' W 009°22'9 9.2
2014-Oct-19 06:33N 38°10' W 009°13'9 8.8
2014-Oct-19 05:33N 38°05' W 009°04'10 9.6
2014-Oct-19 04:33N 37°58' W 008°56'2 2.0
2014-Oct-19 03:33N 37°57' W 008°53'0 0.0
2014-Oct-19 02:33N 37°57' W 008°53'0 0.0
2014-Oct-19 01:33N 37°57' W 008°53'0 0.0
2014-Oct-19 00:33N 37°57' W 008°53'0 0.0
2014-Oct-18 23:33N 37°57' W 008°53'0 0.0
2014-Oct-18 22:33N 37°57' W 008°53'0 0.0
2014-Oct-18 21:33N 37°57' W 008°53'0 0.0
2014-Oct-18 20:33N 37°57' W 008°53'0 0.0
2014-Oct-18 19:30N 37°57' W 008°53'0 0.0
2014-Oct-18 18:33N 37°57' W 008°53'0 0.0
2014-Oct-18 17:33N 37°57' W 008°53'0 0.0
2014-Oct-18 16:33N 37°57' W 008°53'0 0.0
2014-Oct-18 15:33N 37°57' W 008°53'0 0.0
2014-Oct-18 14:30N 37°57' W 008°53'0 0.0
2014-Oct-18 13:33N 37°57' W 008°53'0 0.0
2014-Oct-18 12:33N 37°57' W 008°53'0 0.0
2014-Oct-18 11:33N 37°57' W 008°53'0 0.0
2014-Oct-18 10:33N 37°57' W 008°53'0 0.0
2014-Oct-18 09:33N 37°57' W 008°53'0 0.0
2014-Oct-18 08:33N 37°57' W 008°53'0 0.0
2014-Oct-18 07:33N 37°57' W 008°53'0 0.0
2014-Oct-18 06:33N 37°57' W 008°53'0 0.0
2014-Oct-18 05:33N 37°57' W 008°53'0 0.0
2014-Oct-18 04:33N 37°57' W 008°53'0 0.0
2014-Oct-18 03:33N 37°57' W 008°53'0 0.0
2014-Oct-18 02:33N 37°57' W 008°53'0 0.0
2014-Oct-18 01:33N 37°57' W 008°53'0 0.0
2014-Oct-18 00:33N 37°57' W 008°53'0 0.0
2014-Oct-17 23:33N 37°57' W 008°53'0 0.0
2014-Oct-17 22:33N 37°57' W 008°53'0 0.0
2014-Oct-17 21:27N 37°57' W 008°53'1 1.5
2014-Oct-17 20:33N 37°56' W 008°53'1 1.3
2014-Oct-17 19:31N 37°55' W 008°52'0 0.1
2014-Oct-17 18:31N 37°55' W 008°52'0 0.0
2014-Oct-17 17:31N 37°55' W 008°52'0 0.0
2014-Oct-17 16:31N 37°55' W 008°52'0 0.0
2014-Oct-17 15:31N 37°55' W 008°52'0 0.0
2014-Oct-17 14:28N 37°55' W 008°52'0 0.0
2014-Oct-17 13:31N 37°55' W 008°52'0 0.0
2014-Oct-17 12:31N 37°55' W 008°52'0 0.0
2014-Oct-17 11:31N 37°55' W 008°52'0 0.0
2014-Oct-17 10:31N 37°55' W 008°52'0 0.0
2014-Oct-17 09:31N 37°55' W 008°52'0 0.0
2014-Oct-17 08:31N 37°55' W 008°52'0 0.0
2014-Oct-17 07:31N 37°55' W 008°52'0 0.0
2014-Oct-17 06:31N 37°55' W 008°52'0 0.0
2014-Oct-17 05:31N 37°55' W 008°52'0 0.0
2014-Oct-17 04:31N 37°55' W 008°52'0 0.0
2014-Oct-17 03:31N 37°55' W 008°52'0 0.0
2014-Oct-17 02:31N 37°55' W 008°52'0 0.0
2014-Oct-17 01:31N 37°55' W 008°52'0 0.0
2014-Oct-17 00:31N 37°55' W 008°52'0 0.0
2014-Oct-16 23:31N 37°55' W 008°52'0 0.0
2014-Oct-16 22:31N 37°55' W 008°52'0 0.0
2014-Oct-16 21:31N 37°55' W 008°52'0 0.0
2014-Oct-16 20:31N 37°55' W 008°52'0 0.0
2014-Oct-16 19:31N 37°55' W 008°52'0 0.0
2014-Oct-16 18:31N 37°55' W 008°52'0 0.0
2014-Oct-16 17:31N 37°55' W 008°52'0 0.0
2014-Oct-16 16:31N 37°55' W 008°52'0 0.0
2014-Oct-16 15:31N 37°55' W 008°52'0 0.0
2014-Oct-16 14:31N 37°55' W 008°52'0 0.0
2014-Oct-16 13:31N 37°55' W 008°52'0 0.0
2014-Oct-16 12:31N 37°55' W 008°52'0 0.0
2014-Oct-16 11:31N 37°55' W 008°52'0 0.0
2014-Oct-16 10:31N 37°55' W 008°52'0 0.0
2014-Oct-16 09:28N 37°55' W 008°52'0 0.0
2014-Oct-16 08:31N 37°55' W 008°52'0 0.0
2014-Oct-16 07:31N 37°55' W 008°52'0 0.0
2014-Oct-16 06:31N 37°55' W 008°52'0 0.0
2014-Oct-16 05:28N 37°55' W 008°52'0 0.0
2014-Oct-16 04:31N 37°55' W 008°52'0 0.0
2014-Oct-16 03:31N 37°55' W 008°52'0 0.0
2014-Oct-16 02:31N 37°55' W 008°52'0 0.0
2014-Oct-16 01:31N 37°55' W 008°52'0 0.0
2014-Oct-16 00:31N 37°55' W 008°52'0 0.0
2014-Oct-15 23:31N 37°55' W 008°52'  

Dump ship's entire track history